Location: Estes Par
(40.3770°N, 105.5210°W)
Time: 19:31:51
(UTC-07:00)

Envisat - Pass Details

Date: 08 October 2017
Orbit: 764 x 766 km, 98.2° (Epoch: 14 December)

Event Time Altitude Azimuth Distance (km) Brightness Sun altitude
Exits shadow 22:01:58 19° 282° (WNW) 1,753 5.3 -39.4°
Drops below altitude 10° 22:04:44 10° 314° (NW) 2,305 6.1 -39.9°
Sets 22:07:39 0° 331° (NNW) 3,237 6.9 -40.4°
